#timestamp,LO_Frequency,Hit,StdDev 
1568750415.7,286046999.0,P
1568750435.5,286046997.2,N
1568750455.3,286046997.9,N
1568750475.2,286046996.8,N
1568750495.0,286046998.3,N
1568750495.9,286046998.3,N
1568750515.8,286046998.4,N
1568750535.6,286047001.0,N
1568750555.4,286046998.5,N
1568750575.3,286046998.2,N
1568750595.1,286047001.0,N
1568750615.9,286047000.8,N
1568750635.7,286046998.2,N
1568750655.5,286046998.6,N
1568750675.4,286047001.1,N
1568750695.2,286046998.6,N
1568750715.0,286047000.9,N
1568750715.9,286047000.9,N
1568750735.8,286046998.1,N
1568750755.6,286046998.7,N
1568750775.5,286046999.1,N
1568750795.3,286046999.0,N
1568750815.1,286046999.2,N
1568750835.9,286046998.9,N
1568750855.7,286046996.6,N
1568750875.5,286046999.4,N
1568750895.4,286046999.5,N
1568750915.2,286046997.2,N
1568750935.1,286046998.4,N
1568750936.0,286046998.4,N
1568750955.8,286047000.8,N
1568750975.6,286046998.1,N
1568750995.5,286046998.9,N
1568751015.3,286046999.4,N
1568751035.2,286046998.6,N
1568751055.9,286046999.1,N
1568751075.7,286046998.5,N
1568751095.6,286046998.7,N
1568751115.4,286047000.8,N
1568751135.2,286047001.2,N
1568751155.1,286047000.8,N
1568751156.0,286047000.8,N
1568751175.8,286047001.1,N
1568751195.7,286047000.8,N
1568751215.5,286046999.2,N
1568751235.3,286046998.6,N
1568751255.2,286046998.2,N
1568751275.0,286046999.6,N
1568751275.9,286046999.6,N
1568751295.8,286046999.1,N
1568751315.6,286046997.7,N
1568751335.4,286046998.3,N
1568751355.3,286047000.7,N
1568751375.1,286046998.1,N
1568751395.8,286046998.6,N
1568751415.7,286046998.4,N
1568751435.5,286047001.0,N
1568751455.4,286046999.3,N
1568751475.2,286046998.6,N
1568751495.0,286047000.0,N
1568751495.9,286047000.0,N
1568751515.8,286047000.1,N
1568751535.6,286047001.4,N
1568751555.5,286047001.3,N
1568751575.3,286047004.2,Y
1568751595.1,286047002.9,P
1568751615.9,286047003.8,N
1568751635.7,286047002.4,N
1568751655.6,286047000.0,N
1568751675.4,286047000.3,N
1568751695.2,286047000.9,N
1568751715.1,286047001.2,N
1568751716.0,286047001.2,N
1568751735.8,286046998.1,N
1568751755.7,286047000.7,N
1568751775.5,286047000.2,N
1568751795.3,286047000.2,N
1568751815.2,286046999.8,N
1568751835.0,286047002.8,N
1568751835.9,286047002.8,N
1568751855.7,286047004.0,N
1568751875.6,286047003.1,N
1568751895.4,286047004.3,N
1568751915.3,286047004.2,N
1568751935.1,286047004.4,N
1568751936.0,286047004.4,N
1568751955.8,286046999.8,N
1568751975.7,286047002.2,N
1568751995.5,286047002.4,N
1568752015.3,286047002.7,N
1568752035.2,286047003.1,N
1568752055.0,286047001.4,N
1568752055.9,286047001.4,N
1568752075.8,286047004.4,N
1568752095.6,286047003.9,N
1568752115.4,286047003.8,N
1568752135.3,286047003.9,N
1568752155.1,286047003.4,N
1568752175.9,286047005.7,Y
1568752195.7,286047002.2,P
1568752215.5,286046999.8,P
1568752235.4,286046999.8,N
1568752255.2,286047001.4,N
1568752275.0,286047004.4,Y
1568752276.0,286047004.4,P
1568752295.8,286047000.2,N
1568752315.6,286047002.7,N
1568752335.5,286047001.0,N
1568752355.3,286047002.2,N
1568752375.1,286047000.3,N
1568752395.9,286047000.7,N
1568752415.7,286047001.1,N
1568752435.6,286047001.2,N
1568752455.4,286047000.7,N
1568752475.2,286047000.8,N
1568752495.1,286046998.5,N
1568752496.0,286046998.5,N
1568752515.8,286046998.7,N
1568752535.6,286046996.6,N
1568752555.5,286046996.9,N
1568752575.3,286046999.0,N
1568752595.2,286046999.5,N
1568752615.9,286046998.8,N
1568752635.7,286046999.2,N
1568752655.6,286047000.7,N
1568752675.4,286047000.7,N
1568752695.2,286047002.0,N
1568752715.1,286047002.3,N
1568752716.0,286047002.3,N
1568752735.8,286047000.3,N
1568752755.7,286047002.0,N
1568752775.5,286047001.7,N
1568752795.3,286047003.9,N
1568752815.2,286047001.9,N
1568752835.0,286047004.0,N
1568752835.9,286047004.0,N
1568752855.8,286047002.7,N
1568752875.6,286047000.2,N
1568752895.4,286047002.8,N
1568752915.3,286047002.6,N
1568752935.1,286047002.3,N
1568752955.9,286047001.2,N
1568752975.7,286047001.1,N
1568752995.5,286046998.7,N
1568753015.4,286047000.8,N
1568753035.2,286047000.0,N
1568753055.0,286047001.9,N
1568753055.9,286047001.9,N
1568753075.8,286047002.1,N
1568753095.6,286047002.2,N
1568753115.5,286047003.5,N
1568753135.3,286047003.3,N
1568753155.1,286047005.5,Y
1568753175.9,286047002.5,P
1568753195.7,286047002.2,P
1568753215.6,286047001.5,P
1568753235.4,286047004.3,Y
1568753255.2,286047002.3,P
1568753275.1,286047003.8,P
1568753276.0,286047003.8,P
1568753295.8,286047003.4,Y
1568753315.7,286047002.8,P
1568753335.5,286047002.4,P
1568753355.3,286047002.3,P
1568753375.2,286047001.9,Y
1568753395.0,286046998.8,P
1568753395.9,286046998.8,N
1568753415.7,286046999.3,N
1568753435.6,286046999.2,N
1568753455.5,286046999.5,N
1568753475.4,286046999.6,N
1568753495.2,286046996.5,N
1568753515.0,286046999.2,N
1568753515.9,286046999.2,N
1568753535.8,286046997.3,N
1568753555.6,286046997.2,N
1568753575.4,286046999.5,N
1568753595.3,286046997.7,N
1568753615.1,286046995.0,Y
1568753635.9,286046999.6,P
1568753655.7,286046999.4,N
1568753675.5,286046999.2,N
1568753695.4,286046999.4,N
1568753715.2,286046997.5,Y
1568753735.1,286046999.5,P
1568753736.0,286046999.5,P
1568753755.8,286046998.3,P
1568753775.6,286046998.8,N
1568753795.5,286046996.5,Y
1568753815.3,286046998.3,P
1568753835.2,286046996.5,P
1568753855.9,286046997.4,N
1568753875.7,286046997.3,N
1568753895.6,286046996.7,Y
1568753915.4,286047000.8,P
1568753935.3,286046998.5,N
1568753955.1,286046998.6,N
1568753956.0,286046998.6,N
1568753975.8,286046998.5,N
1568753995.7,286046998.4,N
